Find STARLINK-37575

NORAD ID: 799500905 Int'l Des: 2026-127M Constellation: starlink operational

現在のビュー

3D地球を読み込み中...

STARLINK-37575について

説明を読み込み中...

次回通過

Passes for default location (London). Set your location on the main map for personalized predictions.

高度履歴

Loading altitude history...

軌道要素

1 99999C 2026127M 26159.94215278 .00901490 00000-0 933950-4 0 1590
2 99999 53.1615 304.7400 0008837 291.6429 195.7052 16.09315516 12
Epoch: Jun 8, 2026 • Age: 2 hours

現在のステータス

高度 261.4 km
速度 7.75 km/s
衛星直下点 -52.07°S, 69.94°W
打ち上げ日 Jun 4, 2026
運用期間 4 days
タイプ internet

Most Searched